M I D A S
Marine Information and Data Acquisition System
Tripno 2132 of the Zeeleeuw from 2011-01-21 07:34:33 to 2011-01-21 16:03:05
Back to CruiseResearch ActivitiesStationsMapUnderway DataData graphs

EquipmentUnitsComments
TimeDGPSUTC
LatitudeDGPSDM.mWGS84
LongitudeDGPSDM.mWGS84
SpeedMeteo Stationm/sRelative wind speed
DirectionMeteo StationdegRelative wind direction
TemperatureMeteo Stationdeg CelciusAir temperature
PressureMeteo StationPaAtmospheric pressure
HumidityMeteo Station%Relative humidity
Missing or incorrect values are displayed as -999
Metereological data collected by the RV Zeeleeuw from 2011-01-21 07:39:10 to 2011-01-21 16:03:00
                                                                                    Next 1000 lines
Time Latitude Longitude Speed Direction Temperature Pressure Humidity
2011-01-21 07:39:19 51°13.661 2°55.958 -999 307 3.8 103640 41
2011-01-21 07:39:25 51°13.662 2°55.955 -999 256 3.9 103650 41
2011-01-21 07:39:30 51°13.663 2°55.951 -999 307 3.9 103650 41
2011-01-21 07:39:35 51°13.664 2°55.946 -999 25 3.9 103640 41
2011-01-21 07:39:40 51°13.666 2°55.941 -999 53 3.9 103640 41
2011-01-21 07:39:47 51°13.668 2°55.932 -999 22 3.9 103640 41
2011-01-21 07:39:52 51°13.67 2°55.925 -999 53 3.9 103640 41
2011-01-21 07:39:52 51°13.67 2°55.925 -999 22 3.9 103640 41
2011-01-21 07:39:52 51°13.67 2°55.925 -999 53 3.9 103640 41
2011-01-21 07:40:08 51°13.67 2°55.897 -999 22 3.8 103650 41
2011-01-21 07:40:14 51°13.673 2°55.887 -999 54 3.8 103650 41
2011-01-21 07:40:19 51°13.676 2°55.878 -999 26 3.8 103640 41
2011-01-21 07:40:23 51°13.678 2°55.871 0.1 53 3.8 103640 41
2011-01-21 07:40:28 51°13.68 2°55.861 0.1 268 3.8 103640 41
2011-01-21 07:40:33 51°13.682 2°55.853 -999 53 3.8 103640 41
2011-01-21 07:40:39 51°13.685 2°55.843 -999 23 3.8 103640 41
2011-01-21 07:40:43 51°13.686 2°55.836 -999 53 3.8 103640 41
2011-01-21 07:40:48 51°13.687 2°55.828 -999 268 3.8 103640 41
2011-01-21 07:40:53 51°13.688 2°55.822 -999 307 3.8 103640 41
2011-01-21 07:40:59 51°13.689 2°55.813 -999 27 3.8 103640 41
2011-01-21 07:41:01 51°13.689 2°55.81 -999 58 3.8 103640 41
2011-01-21 07:41:01 51°13.689 2°55.81 -999 26 3.8 103640 41
2011-01-21 07:41:01 51°13.689 2°55.81 -999 53 3.8 103640 41
2011-01-21 07:41:01 51°13.689 2°55.81 -999 22 3.8 103650 41
2011-01-21 07:41:01 51°13.689 2°55.81 -999 309 3.8 103650 41
2011-01-21 07:41:28 51°13.692 2°55.774 -999 266 3.8 103650 41
2011-01-21 07:41:34 51°13.692 2°55.765 -999 307 3.8 103650 41
2011-01-21 07:41:38 51°13.693 2°55.76 -999 268 3.8 103640 41
2011-01-21 07:41:43 51°13.694 2°55.755 0.9 58 3.8 103640 41
2011-01-21 07:41:48 51°13.694 2°55.75 0.3 260 3.8 103650 40
2011-01-21 07:41:54 51°13.694 2°55.746 0.1 307 3.8 103650 40
2011-01-21 07:41:59 51°13.694 2°55.743 0.1 254 3.8 103640 41
2011-01-21 07:42:03 51°13.695 2°55.742 -999 307 3.8 103640 41
2011-01-21 07:42:08 51°13.695 2°55.739 -999 248 3.8 103640 41
2011-01-21 07:42:14 51°13.695 2°55.737 -999 307 3.8 103640 41
2011-01-21 07:42:19 51°13.695 2°55.736 -999 22 3.8 103650 41
2011-01-21 07:42:23 51°13.695 2°55.734 -999 307 3.8 103650 41
2011-01-21 07:42:28 51°13.695 2°55.733 -999 23 3.8 103640 41
2011-01-21 07:42:33 51°13.695 2°55.732 -999 307 3.8 103640 41
2011-01-21 07:42:39 51°13.695 2°55.731 -999 22 3.8 103650 41
2011-01-21 07:42:43 51°13.696 2°55.731 -999 307 3.8 103650 41
2011-01-21 07:42:48 51°13.696 2°55.731 -999 23 3.8 103650 41
2011-01-21 07:42:53 51°13.697 2°55.731 -999 306 3.8 103650 41
2011-01-21 07:42:59 51°13.698 2°55.731 -999 23 3.8 103640 41
2011-01-21 07:43:03 51°13.698 2°55.731 -999 307 3.8 103640 41
2011-01-21 07:43:08 51°13.699 2°55.732 -999 22 3.8 103650 41
2011-01-21 07:43:13 51°13.7 2°55.733 -999 307 3.8 103650 41
2011-01-21 07:43:18 51°13.701 2°55.733 -999 327 3.8 103640 41
2011-01-21 07:43:23 51°13.702 2°55.734 -999 307 3.8 103640 41
2011-01-21 07:43:28 51°13.703 2°55.734 -999 22 3.8 103650 41
2011-01-21 07:43:34 51°13.704 2°55.735 -999 306 3.8 103650 41
2011-01-21 07:43:38 51°13.706 2°55.735 -999 22 3.8 103650 41
2011-01-21 07:43:43 51°13.707 2°55.736 -999 307 3.8 103650 41
2011-01-21 07:43:48 51°13.709 2°55.736 -999 322 3.8 103650 41
2011-01-21 07:43:54 51°13.71 2°55.737 -999 307 3.8 103650 41
2011-01-21 07:43:58 51°13.712 2°55.737 -999 331 3.8 103650 41
2011-01-21 07:44:03 51°13.713 2°55.737 -999 337 3.8 103650 41
2011-01-21 07:44:09 51°13.716 2°55.736 -999 339 3.8 103650 41
2011-01-21 07:44:14 51°13.718 2°55.736 -999 344 3.8 103650 41
2011-01-21 07:44:18 51°13.721 2°55.736 -999 337 3.8 103650 41
2011-01-21 07:44:18 51°13.721 2°55.736 1.6 341 3.8 103650 41
2011-01-21 07:44:18 51°13.721 2°55.736 0.3 344 3.8 103650 40
2011-01-21 07:44:18 51°13.721 2°55.736 0.1 346 3.8 103650 40
2011-01-21 07:44:18 51°13.721 2°55.736 0.1 343 3.8 103650 41
2011-01-21 07:44:43 51°13.73 2°55.731 -999 338 3.8 103650 41
2011-01-21 07:44:48 51°13.733 2°55.729 -999 345 3.9 103650 41
2011-01-21 07:44:54 51°13.736 2°55.727 2.2 341 3.9 103650 41
2011-01-21 07:44:59 51°13.74 2°55.724 2.3 345 3.9 103650 41
2011-01-21 07:45:03 51°13.742 2°55.721 0.2 353 3.9 103650 41
2011-01-21 07:45:08 51°13.746 2°55.717 0.3 342 3.9 103650 42
2011-01-21 07:45:13 51°13.75 2°55.714 1.7 347 3.9 103650 42
2011-01-21 07:45:18 51°13.755 2°55.711 1.9 343 3.9 103650 41
2011-01-21 07:45:23 51°13.759 2°55.706 2.3 347 3.9 103650 41
2011-01-21 07:45:28 51°13.763 2°55.701 2 352 3.9 103650 41
2011-01-21 07:45:33 51°13.768 2°55.695 2.3 334 3.9 103650 41
2011-01-21 07:45:38 51°13.773 2°55.689 1.8 340 3.9 103650 42
2011-01-21 07:45:41 51°13.777 2°55.685 3.6 348 3.9 103650 42
2011-01-21 07:45:41 51°13.777 2°55.685 4.3 346 3.9 103650 41
2011-01-21 07:45:53 51°13.792 2°55.663 4.3 343 3.9 103650 41
2011-01-21 07:45:57 51°13.797 2°55.657 3 338 3.9 103650 41
2011-01-21 07:46:03 51°13.806 2°55.65 3.8 344 3.9 103650 41
2011-01-21 07:46:09 51°13.815 2°55.642 4.3 344 3.9 103650 40
2011-01-21 07:46:13 51°13.822 2°55.636 5.2 340 3.9 103650 40
2011-01-21 07:46:18 51°13.831 2°55.63 4.9 347 3.9 103650 40
2011-01-21 07:46:22 51°13.839 2°55.624 5.1 339 3.9 103650 40
2011-01-21 07:46:28 51°13.851 2°55.615 5.1 341 3.9 103650 40
2011-01-21 07:46:33 51°13.86 2°55.607 6.6 341 3.9 103650 40
2011-01-21 07:46:38 51°13.87 2°55.6 5.9 343 3.9 103640 42
2011-01-21 07:46:43 51°13.88 2°55.592 5.3 344 3.9 103640 42
2011-01-21 07:46:47 51°13.888 2°55.586 5.3 341 3.9 103650 41
2011-01-21 07:46:52 51°13.898 2°55.578 6.8 342 3.9 103650 41
2011-01-21 07:46:52 51°13.898 2°55.578 5.4 341 4 103640 40
2011-01-21 07:46:52 51°13.898 2°55.578 6.1 346 4 103640 40
2011-01-21 07:46:52 51°13.898 2°55.578 6.2 339 4 103650 41
2011-01-21 07:46:52 51°13.898 2°55.578 6.5 345 4 103650 41
2011-01-21 07:46:52 51°13.898 2°55.578 5.4 340 4 103640 41
2011-01-21 07:46:52 51°13.898 2°55.578 6.5 341 4 103640 41
2011-01-21 07:46:52 51°13.898 2°55.578 5.8 344 4 103640 41
2011-01-21 07:46:52 51°13.898 2°55.578 7.3 344 4 103640 41
2011-01-21 07:46:52 51°13.898 2°55.578 6.5 339 4 103640 42
2011-01-21 07:46:52 51°13.898 2°55.578 6.1 347 4 103640 42
2011-01-21 07:46:52 51°13.898 2°55.578 5.3 341 4 103640 41
2011-01-21 07:47:54 51°13.898 2°55.578 6.4 341 4 103640 41
2011-01-21 07:47:58 51°13.898 2°55.578 5.9 341 4 103640 42
2011-01-21 07:48:02 51°13.898 2°55.578 6.3 343 4 103640 42
2011-01-21 07:48:08 51°14.072 2°55.456 7 341 4.1 103650 40
2011-01-21 07:48:14 51°14.084 2°55.437 7.1 343 4.1 103650 40
2011-01-21 07:48:19 51°14.097 2°55.433 6.8 339 4.1 103640 42
2011-01-21 07:48:23 51°14.106 2°55.426 7.4 344 4.1 103640 42
2011-01-21 07:48:28 51°14.118 2°55.416 5.5 341 4.1 103650 42
2011-01-21 07:48:34 51°14.132 2°55.404 7.7 343 4.1 103650 42
2011-01-21 07:48:38 51°14.142 2°55.397 8.9 344 4.1 103640 41
2011-01-21 07:48:43 51°14.154 2°55.388 8 345 4.1 103640 41
2011-01-21 07:48:49 51°14.169 2°55.376 6.3 347 4.1 103640 40
2011-01-21 07:48:54 51°14.181 2°55.366 8.4 343 4.1 103640 40
2011-01-21 07:48:59 51°14.193 2°55.356 5.8 344 4.2 103650 40
2011-01-21 07:49:03 51°14.203 2°55.348 7.2 344 4.2 103650 40
2011-01-21 07:49:08 51°14.215 2°55.337 9.5 343 4.2 103640 40
2011-01-21 07:49:14 51°14.229 2°55.325 9.6 345 4.2 103640 40
2011-01-21 07:49:19 51°14.241 2°55.314 10.3 342 4.2 103650 40
2011-01-21 07:49:23 51°14.251 2°55.305 8.5 343 4.2 103650 40
2011-01-21 07:49:28 51°14.262 2°55.294 9.6 344 4.2 103650 41
2011-01-21 07:49:33 51°14.274 2°55.283 9.6 343 4.2 103650 41
2011-01-21 07:49:39 51°14.289 2°55.269 8.3 345 4.2 103640 40
2011-01-21 07:49:43 51°14.298 2°55.26 9.6 344 4.2 103640 40
2011-01-21 07:49:48 51°14.31 2°55.248 10.1 346 4.2 103640 41
2011-01-21 07:49:53 51°14.322 2°55.237 11.2 343 4.2 103640 41
2011-01-21 07:49:58 51°14.334 2°55.225 8.1 345 4.2 103640 40
2011-01-21 07:50:03 51°14.347 2°55.213 7.5 346 4.2 103640 40
2011-01-21 07:50:08 51°14.359 2°55.2 9.3 345 4.2 103640 40
2011-01-21 07:50:13 51°14.372 2°55.187 8 344 4.2 103640 40
2011-01-21 07:50:18 51°14.384 2°55.175 7.2 342 4.2 103640 40
2011-01-21 07:50:23 51°14.397 2°55.162 7.2 342 4.2 103640 40
2011-01-21 07:50:28 51°14.409 2°55.149 9.8 342 4.2 103630 39
2011-01-21 07:50:34 51°14.424 2°55.133 6.6 342 4.2 103630 39
2011-01-21 07:50:38 51°14.435 2°55.122 9.7 340 4.3 103640 40
2011-01-21 07:50:43 51°14.447 2°55.109 8.7 342 4.3 103640 40
2011-01-21 07:50:48 51°14.46 2°55.095 9.1 344 4.3 103640 39
2011-01-21 07:50:53 51°14.473 2°55.081 6.8 345 4.3 103640 39
2011-01-21 07:50:58 51°14.487 2°55.067 7.3 345 4.3 103640 38
2011-01-21 07:51:03 51°14.5 2°55.053 10.3 347 4.3 103640 38
2011-01-21 07:51:08 51°14.513 2°55.038 7.8 348 4.3 103640 40
2011-01-21 07:51:13 51°14.526 2°55.023 9.2 350 4.3 103640 40
2011-01-21 07:51:18 51°14.537 2°55.005 6.8 350 4.3 103640 39
2011-01-21 07:51:23 51°14.548 2°54.985 8.8 348 4.3 103640 39
2011-01-21 07:51:27 51°14.555 2°54.967 9.2 349 4.4 103630 40
2011-01-21 07:51:32 51°14.565 2°54.945 8.6 346 4.4 103630 40
2011-01-21 07:51:37 51°14.574 2°54.922 9.1 347 4.4 103630 39
2011-01-21 07:51:42 51°14.583 2°54.898 9.6 350 4.4 103630 39
2011-01-21 07:51:47 51°14.591 2°54.872 9.3 351 4.5 103630 40
2011-01-21 07:51:51 51°14.597 2°54.851 6.3 353 4.5 103630 40
2011-01-21 07:51:56 51°14.603 2°54.824 7.7 353 4.5 103630 40
2011-01-21 07:52:01 51°14.609 2°54.796 7.1 352 4.5 103630 40
2011-01-21 07:52:06 51°14.614 2°54.768 8.6 352 4.5 103640 40
2011-01-21 07:52:11 51°14.62 2°54.74 6.1 352 4.5 103640 40
2011-01-21 07:52:15 51°14.624 2°54.717 7.1 352 4.5 103640 39
2011-01-21 07:52:21 51°14.63 2°54.682 6 352 4.5 103640 39
2011-01-21 07:52:26 51°14.635 2°54.654 7.4 351 4.5 103640 38
2011-01-21 07:52:31 51°14.641 2°54.625 7.6 351 4.5 103640 38
2011-01-21 07:52:35 51°14.645 2°54.602 7.3 350 4.5 103640 39
2011-01-21 07:52:40 51°14.65 2°54.574 9.3 352 4.5 103640 39
2011-01-21 07:52:45 51°14.655 2°54.546 9.1 352 4.5 103640 40
2011-01-21 07:52:50 51°14.661 2°54.519 7.2 353 4.5 103640 40
2011-01-21 07:52:55 51°14.667 2°54.491 9.3 353 4.5 103640 40
2011-01-21 07:52:59 51°14.671 2°54.468 7.5 353 4.5 103640 40
2011-01-21 07:53:05 51°14.678 2°54.434 8.6 352 4.5 103640 39
2011-01-21 07:53:10 51°14.683 2°54.406 9.2 353 4.5 103640 39
2011-01-21 07:53:15 51°14.689 2°54.378 8.1 351 4.5 103650 40
2011-01-21 07:53:19 51°14.694 2°54.355 6.7 348 4.5 103650 40
2011-01-21 07:53:25 51°14.701 2°54.322 6.2 349 4.5 103640 39
2011-01-21 07:53:30 51°14.707 2°54.293 7.9 348 4.5 103640 39
2011-01-21 07:53:35 51°14.714 2°54.265 7.1 349 4.5 103640 40
2011-01-21 07:53:39 51°14.719 2°54.242 7.8 347 4.5 103640 40
2011-01-21 07:53:45 51°14.726 2°54.208 8.3 347 4.5 103640 41
2011-01-21 07:53:50 51°14.732 2°54.18 8.7 347 4.5 103640 41
2011-01-21 07:53:55 51°14.739 2°54.152 8.8 350 4.5 103640 39
2011-01-21 07:54:00 51°14.745 2°54.123 6.7 351 4.5 103640 39
2011-01-21 07:54:05 51°14.75 2°54.094 9.2 350 4.5 103650 39
2011-01-21 07:54:10 51°14.756 2°54.066 6.7 349 4.5 103650 39
2011-01-21 07:54:15 51°14.762 2°54.037 6.4 349 4.5 103640 39
2011-01-21 07:54:20 51°14.768 2°54.009 6.7 351 4.5 103640 39
2011-01-21 07:54:25 51°14.773 2°53.98 7.9 351 4.5 103640 39
2011-01-21 07:54:30 51°14.779 2°53.952 6.6 353 4.5 103640 39
2011-01-21 07:54:35 51°14.785 2°53.924 8.8 351 4.6 103650 41
2011-01-21 07:54:40 51°14.791 2°53.897 9.5 352 4.6 103650 41
2011-01-21 07:54:45 51°14.798 2°53.869 7.2 351 4.5 103640 40
2011-01-21 07:54:50 51°14.804 2°53.841 9 351 4.5 103640 40
2011-01-21 07:54:55 51°14.811 2°53.814 6.9 351 4.5 103640 40
2011-01-21 07:54:59 51°14.816 2°53.792 8.3 351 4.5 103640 40
2011-01-21 07:55:05 51°14.823 2°53.759 8.6 350 4.5 103640 38
2011-01-21 07:55:10 51°14.829 2°53.731 8.7 351 4.5 103640 38
2011-01-21 07:55:15 51°14.836 2°53.703 7 352 4.5 103640 40
2011-01-21 07:55:19 51°14.841 2°53.68 8.4 351 4.5 103640 40
2011-01-21 07:55:25 51°14.848 2°53.646 8.5 349 4.5 103640 39
2011-01-21 07:55:30 51°14.854 2°53.618 7.5 350 4.5 103640 39
2011-01-21 07:55:35 51°14.86 2°53.59 6.8 351 4.5 103640 40
2011-01-21 07:55:39 51°14.865 2°53.568 6.8 351 4.5 103640 40
2011-01-21 07:55:45 51°14.872 2°53.534 5.9 349 4.5 103650 39
2011-01-21 07:55:50 51°14.878 2°53.505 9 350 4.5 103650 39
2011-01-21 07:55:55 51°14.883 2°53.476 6 351 4.5 103640 39
2011-01-21 07:55:59 51°14.887 2°53.453 6.6 348 4.5 103640 39
2011-01-21 07:56:04 51°14.892 2°53.424 6.6 349 4.5 103640 39
2011-01-21 07:56:10 51°14.899 2°53.389 9 347 4.5 103640 39
2011-01-21 07:56:15 51°14.904 2°53.36 7.4 348 4.6 103650 40
2011-01-21 07:56:19 51°14.909 2°53.337 6.6 349 4.6 103650 40
2011-01-21 07:56:24 51°14.915 2°53.309 7.2 349 4.6 103640 39
2011-01-21 07:56:29 51°14.921 2°53.28 6.6 347 4.6 103640 39
2011-01-21 07:56:34 51°14.927 2°53.252 7.2 349 4.6 103640 40
2011-01-21 07:56:39 51°14.933 2°53.223 6.6 350 4.6 103640 40
2011-01-21 07:56:44 51°14.939 2°53.195 6.4 351 4.6 103640 38
2011-01-21 07:56:49 51°14.945 2°53.166 7.9 347 4.6 103640 38
2011-01-21 07:56:54 51°14.951 2°53.138 5.7 347 4.6 103640 40
2011-01-21 07:57:00 51°14.958 2°53.103 6.5 346 4.6 103640 40
2011-01-21 07:57:05 51°14.963 2°53.073 8.9 344 4.6 103640 40
2011-01-21 07:57:10 51°14.967 2°53.044 9.5 347 4.6 103640 40
2011-01-21 07:57:15 51°14.972 2°53.014 9.1 348 4.6 103650 39
2011-01-21 07:57:20 51°14.976 2°52.985 9.5 348 4.6 103650 39
2011-01-21 07:57:25 51°14.98 2°52.955 8.7 349 4.6 103640 41
2011-01-21 07:57:30 51°14.985 2°52.925 6.9 349 4.6 103640 41
2011-01-21 07:57:35 51°14.99 2°52.896 9.1 348 4.6 103640 40
2011-01-21 07:57:40 51°14.997 2°52.868 7.1 347 4.6 103640 40
2011-01-21 07:57:45 51°15.003 2°52.84 10.4 347 4.6 103640 40
2011-01-21 07:57:50 51°15.011 2°52.812 9.1 347 4.6 103640 40
2011-01-21 07:57:55 51°15.019 2°52.785 8.6 348 4.6 103640 40
2011-01-21 07:58:00 51°15.028 2°52.759 9.7 349 4.6 103640 40
2011-01-21 07:58:04 51°15.034 2°52.737 9 346 4.6 103640 39
2011-01-21 07:58:10 51°15.044 2°52.705 8 345 4.6 103640 39
2011-01-21 07:58:15 51°15.052 2°52.677 7.1 347 4.6 103640 39
2011-01-21 07:58:20 51°15.059 2°52.65 9.6 346 4.6 103640 39
2011-01-21 07:58:24 51°15.065 2°52.627 7.2 347 4.6 103640 39
2011-01-21 07:58:30 51°15.073 2°52.593 6.6 348 4.6 103640 39
2011-01-21 07:58:35 51°15.079 2°52.565 8.3 349 4.6 103640 39
2011-01-21 07:58:40 51°15.085 2°52.536 6.6 346 4.6 103640 39
2011-01-21 07:58:45 51°15.09 2°52.507 6.9 348 4.6 103640 41
2011-01-21 07:58:50 51°15.096 2°52.478 10.1 347 4.6 103640 41
2011-01-21 07:58:55 51°15.102 2°52.449 6.5 348 4.6 103640 40
2011-01-21 07:59:00 51°15.107 2°52.42 6.6 347 4.6 103640 40
2011-01-21 07:59:04 51°15.112 2°52.397 9.1 346 4.6 103640 41
2011-01-21 07:59:10 51°15.12 2°52.363 9 346 4.6 103640 41
2011-01-21 07:59:15 51°15.126 2°52.334 9.9 346 4.6 103640 40
2011-01-21 07:59:20 51°15.133 2°52.306 8.3 344 4.6 103640 40
2011-01-21 07:59:25 51°15.139 2°52.278 9.8 347 4.6 103640 39
2011-01-21 07:59:30 51°15.147 2°52.25 10.6 346 4.6 103640 39
2011-01-21 07:59:35 51°15.153 2°52.222 10.1 345 4.6 103650 39
2011-01-21 07:59:40 51°15.16 2°52.194 10.1 344 4.6 103650 39
2011-01-21 07:59:45 51°15.167 2°52.165 10.5 345 4.6 103640 39
2011-01-21 07:59:50 51°15.174 2°52.137 10.6 347 4.6 103640 39
2011-01-21 07:59:55 51°15.18 2°52.108 10 346 4.6 103640 39
2011-01-21 08:00:00 51°15.187 2°52.08 7.5 346 4.6 103640 39
2011-01-21 08:00:05 51°15.194 2°52.052 8.3 346 4.6 103640 40
2011-01-21 08:00:10 51°15.201 2°52.023 10.5 346 4.6 103640 40
2011-01-21 08:00:15 51°15.207 2°51.995 9 344 4.6 103640 40
2011-01-21 08:00:20 51°15.213 2°51.966 8.9 345 4.6 103640 40
2011-01-21 08:00:24 51°15.219 2°51.943 7.9 345 4.6 103640 38
2011-01-21 08:00:30 51°15.226 2°51.909 8.1 347 4.6 103640 38
2011-01-21 08:00:35 51°15.232 2°51.88 9.9 346 4.6 103640 39
2011-01-21 08:00:40 51°15.238 2°51.851 7.5 345 4.6 103640 39
2011-01-21 08:00:44 51°15.242 2°51.828 10.6 348 4.6 103640 41
2011-01-21 08:00:50 51°15.247 2°51.792 10 349 4.6 103640 41
2011-01-21 08:00:55 51°15.251 2°51.762 6.9 347 4.6 103650 40
2011-01-21 08:01:00 51°15.254 2°51.731 8.8 348 4.6 103650 40
2011-01-21 08:01:04 51°15.256 2°51.707 6.7 348 4.6 103650 40
2011-01-21 08:01:10 51°15.26 2°51.67 7 348 4.6 103650 40
2011-01-21 08:01:15 51°15.262 2°51.639 6.9 348 4.6 103640 39
2011-01-21 08:01:20 51°15.265 2°51.608 6.6 350 4.6 103640 39
2011-01-21 08:01:25 51°15.268 2°51.577 9.4 349 4.6 103650 40
2011-01-21 08:01:30 51°15.271 2°51.546 7.8 348 4.6 103650 40
2011-01-21 08:01:35 51°15.275 2°51.516 8.9 346 4.6 103640 39
2011-01-21 08:01:40 51°15.278 2°51.485 7 347 4.6 103640 39
2011-01-21 08:01:44 51°15.28 2°51.46 6.8 346 4.6 103640 40
2011-01-21 08:01:50 51°15.282 2°51.423 6.7 350 4.6 103640 40
2011-01-21 08:01:55 51°15.283 2°51.391 6.6 348 4.6 103640 40
2011-01-21 08:02:00 51°15.283 2°51.36 7.2 348 4.6 103640 40
2011-01-21 08:02:04 51°15.283 2°51.335 7.1 350 4.6 103640 40
2011-01-21 08:02:10 51°15.282 2°51.296 7.3 349 4.6 103640 40
2011-01-21 08:02:15 51°15.28 2°51.264 7.8 350 4.6 103640 40
2011-01-21 08:02:20 51°15.279 2°51.232 7.1 351 4.6 103640 40
2011-01-21 08:02:24 51°15.277 2°51.207 7.3 349 4.6 103640 38
2011-01-21 08:02:30 51°15.275 2°51.168 6.9 351 4.6 103640 38
2011-01-21 08:02:35 51°15.273 2°51.136 6.5 350 4.6 103650 38
2011-01-21 08:02:40 51°15.27 2°51.104 7 349 4.6 103650 38
2011-01-21 08:02:44 51°15.269 2°51.078 5.7 349 4.6 103650 39
2011-01-21 08:02:50 51°15.266 2°51.039 5.6 348 4.6 103650 39
2011-01-21 08:02:55 51°15.265 2°51.007 6 348 4.6 103650 40
2011-01-21 08:03:00 51°15.263 2°50.975 6.7 349 4.6 103650 40
2011-01-21 08:03:04 51°15.262 2°50.949 6.9 350 4.6 103650 37
2011-01-21 08:03:10 51°15.261 2°50.91 5.8 349 4.6 103650 37
2011-01-21 08:03:15 51°15.259 2°50.877 6.4 350 4.6 103650 38
2011-01-21 08:03:20 51°15.258 2°50.845 7.5 348 4.6 103650 38
2011-01-21 08:03:24 51°15.257 2°50.819 7.6 350 4.6 103650 40
2011-01-21 08:03:30 51°15.256 2°50.78 7.3 348 4.6 103650 40
2011-01-21 08:03:35 51°15.255 2°50.747 8.8 348 4.6 103650 40
2011-01-21 08:03:40 51°15.253 2°50.714 6.1 347 4.6 103650 40
2011-01-21 08:03:44 51°15.252 2°50.688 6.4 349 4.6 103650 40
2011-01-21 08:03:50 51°15.25 2°50.649 7.2 349 4.6 103650 40
2011-01-21 08:03:55 51°15.249 2°50.616 7.4 347 4.6 103650 38
2011-01-21 08:04:00 51°15.248 2°50.583 6 349 4.6 103650 38
2011-01-21 08:04:04 51°15.246 2°50.557 7.3 349 4.6 103650 40
2011-01-21 08:04:10 51°15.245 2°50.518 6.1 349 4.6 103650 40
2011-01-21 08:04:15 51°15.243 2°50.485 6 350 4.6 103650 38
2011-01-21 08:04:20 51°15.242 2°50.453 5.8 349 4.6 103650 38
2011-01-21 08:04:24 51°15.241 2°50.427 5.9 348 4.5 103650 38
2011-01-21 08:04:30 51°15.239 2°50.387 6.8 349 4.5 103650 38
2011-01-21 08:04:35 51°15.237 2°50.355 5.4 349 4.5 103650 39
2011-01-21 08:04:40 51°15.235 2°50.322 6.4 348 4.5 103650 39
2011-01-21 08:04:44 51°15.232 2°50.296 6.2 351 4.6 103650 38
2011-01-21 08:04:50 51°15.228 2°50.257 6.1 352 4.6 103650 38
2011-01-21 08:04:55 51°15.224 2°50.224 5.7 350 4.6 103650 40
2011-01-21 08:05:00 51°15.219 2°50.192 5.9 351 4.6 103650 40
2011-01-21 08:05:04 51°15.215 2°50.166 6.1 350 4.6 103650 38
2011-01-21 08:05:10 51°15.209 2°50.128 5.1 349 4.6 103650 38
2011-01-21 08:05:15 51°15.204 2°50.095 6.1 350 4.6 103650 39
2011-01-21 08:05:20 51°15.199 2°50.063 5.8 351 4.6 103650 39
2011-01-21 08:05:25 51°15.194 2°50.03 5.5 351 4.5 103650 39
2011-01-21 08:05:30 51°15.19 2°49.998 5.3 349 4.5 103650 39
2011-01-21 08:05:35 51°15.185 2°49.965 5.2 349 4.6 103650 40
2011-01-21 08:05:40 51°15.182 2°49.932 5.2 348 4.6 103650 40
2011-01-21 08:05:44 51°15.178 2°49.907 5.1 350 4.6 103650 39
2011-01-21 08:05:50 51°15.173 2°49.867 5.6 350 4.6 103650 39
2011-01-21 08:05:55 51°15.168 2°49.835 5.9 352 4.6 103650 38
2011-01-21 08:06:00 51°15.164 2°49.803 6.5 352 4.6 103650 38
2011-01-21 08:06:05 51°15.159 2°49.77 5.3 351 4.6 103650 39
2011-01-21 08:06:10 51°15.154 2°49.738 4.8 351 4.6 103650 39
2011-01-21 08:06:15 51°15.15 2°49.705 4.8 350 4.6 103650 38
2011-01-21 08:06:20 51°15.145 2°49.673 5.2 351 4.6 103650 38
2011-01-21 08:06:25 51°15.14 2°49.641 6.5 350 4.6 103650 39
2011-01-21 08:06:30 51°15.135 2°49.608 5.7 350 4.6 103650 39
2011-01-21 08:06:35 51°15.131 2°49.575 6.5 350 4.6 103650 40
2011-01-21 08:06:40 51°15.126 2°49.543 7.1 347 4.6 103650 40
2011-01-21 08:06:44 51°15.123 2°49.517 7 350 4.6 103660 39
2011-01-21 08:06:50 51°15.118 2°49.478 7.1 347 4.6 103660 39
2011-01-21 08:06:55 51°15.114 2°49.445 7.8 349 4.6 103660 38
2011-01-21 08:07:00 51°15.11 2°49.412 7.4 350 4.6 103660 38
2011-01-21 08:07:04 51°15.106 2°49.386 7 350 4.6 103650 39
2011-01-21 08:07:10 51°15.102 2°49.347 7.1 351 4.6 103650 39
2011-01-21 08:07:15 51°15.097 2°49.315 6.2 350 4.6 103650 40
2011-01-21 08:07:20 51°15.093 2°49.282 6.7 350 4.6 103650 40
2011-01-21 08:07:25 51°15.089 2°49.25 5.4 349 4.6 103650 40
2011-01-21 08:07:29 51°15.085 2°49.224 6.7 352 4.6 103650 40
2011-01-21 08:07:35 51°15.08 2°49.185 5.8 348 4.6 103650 40
2011-01-21 08:07:40 51°15.076 2°49.152 7.2 351 4.6 103650 40
2011-01-21 08:07:44 51°15.072 2°49.126 6 352 4.6 103650 38
2011-01-21 08:07:50 51°15.067 2°49.088 7.6 351 4.6 103650 38
2011-01-21 08:07:55 51°15.063 2°49.055 6.7 351 4.6 103650 39
2011-01-21 08:08:00 51°15.058 2°49.023 5.4 351 4.6 103650 39
2011-01-21 08:08:05 51°15.054 2°48.99 6 351 4.6 103650 39
2011-01-21 08:08:10 51°15.05 2°48.958 5.8 348 4.6 103650 39
2011-01-21 08:08:15 51°15.045 2°48.926 5.6 350 4.6 103650 40
2011-01-21 08:08:20 51°15.041 2°48.893 5.9 350 4.6 103650 40
2011-01-21 08:08:24 51°15.038 2°48.867 5.7 351 4.6 103650 37
2011-01-21 08:08:30 51°15.032 2°48.828 5.3 351 4.6 103650 37
2011-01-21 08:08:35 51°15.028 2°48.796 5.4 351 4.6 103650 38
2011-01-21 08:08:40 51°15.025 2°48.763 6.1 351 4.6 103650 38
2011-01-21 08:08:44 51°15.023 2°48.737 6.7 350 4.6 103650 40
2011-01-21 08:08:50 51°15.02 2°48.698 6.7 351 4.6 103650 40
2011-01-21 08:08:55 51°15.018 2°48.665 6 354 4.6 103650 40
2011-01-21 08:09:00 51°15.017 2°48.632 6.6 352 4.6 103650 40
2011-01-21 08:09:04 51°15.016 2°48.606 6.8 350 4.6 103660 39
2011-01-21 08:09:10 51°15.015 2°48.567 6.9 348 4.6 103660 39
2011-01-21 08:09:15 51°15.015 2°48.534 8.5 353 4.6 103650 38
2011-01-21 08:09:20 51°15.014 2°48.501 8.2 350 4.6 103650 38
2011-01-21 08:09:24 51°15.014 2°48.475 6.6 352 4.6 103650 39
2011-01-21 08:09:29 51°15.013 2°48.443 7.3 351 4.6 103650 39
2011-01-21 08:09:35 51°15.012 2°48.403 6.5 354 4.7 103650 39
2011-01-21 08:09:40 51°15.012 2°48.371 6.3 350 4.7 103650 39
2011-01-21 08:09:44 51°15.011 2°48.344 6.8 349 4.7 103650 39
2011-01-21 08:09:50 51°15.01 2°48.305 6.3 350 4.7 103650 39
2011-01-21 08:09:55 51°15.009 2°48.273 6.4 349 4.7 103650 40
2011-01-21 08:10:00 51°15.009 2°48.24 9.4 352 4.7 103650 40
2011-01-21 08:10:05 51°15.008 2°48.207 7 351 4.7 103650 40
2011-01-21 08:10:10 51°15.008 2°48.175 6.8 352 4.7 103650 40
2011-01-21 08:10:15 51°15.007 2°48.143 9.3 352 4.7 103650 40
2011-01-21 08:10:20 51°15.007 2°48.111 6.9 349 4.7 103650 40
2011-01-21 08:10:24 51°15.006 2°48.085 7.3 350 4.7 103650 40
2011-01-21 08:10:30 51°15.006 2°48.047 6.4 348 4.7 103650 40
2011-01-21 08:10:35 51°15.005 2°48.015 6.9 349 4.7 103650 41
2011-01-21 08:10:40 51°15.004 2°47.984 7.8 351 4.7 103650 41
2011-01-21 08:10:45 51°15.003 2°47.952 6.9 351 4.7 103650 39
2011-01-21 08:10:50 51°15.003 2°47.921 6.1 352 4.7 103650 39
2011-01-21 08:10:55 51°15.002 2°47.889 7.3 351 4.7 103650 39
2011-01-21 08:11:00 51°15.001 2°47.857 8.6 352 4.7 103650 39
2011-01-21 08:11:04 51°15.001 2°47.832 6.5 350 4.7 103650 39
2011-01-21 08:11:10 51°15 2°47.795 7.4 352 4.7 103650 39
2011-01-21 08:11:15 51°14.999 2°47.763 7.7 352 4.7 103650 40
2011-01-21 08:11:20 51°14.998 2°47.732 9 351 4.7 103650 40
2011-01-21 08:11:24 51°14.997 2°47.707 7.1 350 4.7 103650 39
2011-01-21 08:11:30 51°14.997 2°47.669 6.8 351 4.7 103650 39
2011-01-21 08:11:35 51°14.996 2°47.638 6.7 352 4.7 103650 41
2011-01-21 08:11:40 51°14.995 2°47.607 6.4 351 4.7 103650 41
2011-01-21 08:11:44 51°14.995 2°47.583 6.6 350 4.7 103650 40
2011-01-21 08:11:50 51°14.994 2°47.546 5.6 351 4.7 103650 40
2011-01-21 08:11:55 51°14.993 2°47.515 6.3 352 4.6 103640 38
2011-01-21 08:12:00 51°14.992 2°47.484 6.9 352 4.6 103640 38
2011-01-21 08:12:05 51°14.992 2°47.453 5.6 351 4.6 103650 38
2011-01-21 08:12:10 51°14.991 2°47.422 5.9 352 4.6 103650 38
2011-01-21 08:12:15 51°14.991 2°47.392 6 353 4.6 103650 38
2011-01-21 08:12:20 51°14.99 2°47.361 6 354 4.6 103650 38
2011-01-21 08:12:24 51°14.989 2°47.337 6.6 352 4.6 103650 38
2011-01-21 08:12:30 51°14.988 2°47.3 5.9 353 4.6 103650 38
2011-01-21 08:12:35 51°14.988 2°47.27 6.2 353 4.6 103650 40
2011-01-21 08:12:40 51°14.987 2°47.24 6 353 4.6 103650 40
2011-01-21 08:12:44 51°14.986 2°47.215 5.8 351 4.6 103650 39
2011-01-21 08:12:50 51°14.984 2°47.179 5.4 352 4.6 103650 39
2011-01-21 08:12:55 51°14.982 2°47.149 6.4 354 4.6 103650 38
2011-01-21 08:13:00 51°14.98 2°47.119 5.9 353 4.6 103650 38
2011-01-21 08:13:05 51°14.977 2°47.089 5.5 355 4.6 103650 38
2011-01-21 08:13:10 51°14.974 2°47.06 5.8 351 4.6 103650 38
2011-01-21 08:13:15 51°14.971 2°47.03 5.9 351 4.6 103650 38
2011-01-21 08:13:20 51°14.967 2°47 5.6 351 4.6 103650 38
2011-01-21 08:13:24 51°14.965 2°46.976 6.4 350 4.6 103660 38
2011-01-21 08:13:30 51°14.96 2°46.941 6.2 353 4.6 103660 38
2011-01-21 08:13:35 51°14.957 2°46.911 7.4 351 4.6 103660 40
2011-01-21 08:13:40 51°14.953 2°46.882 6.4 351 4.6 103660 40
2011-01-21 08:13:44 51°14.951 2°46.858 6.2 351 4.7 103660 39
2011-01-21 08:13:50 51°14.947 2°46.822 5.9 349 4.7 103660 39
2011-01-21 08:13:55 51°14.945 2°46.792 6.4 351 4.7 103660 40
2011-01-21 08:14:00 51°14.943 2°46.762 5.7 349 4.7 103660 40
2011-01-21 08:14:04 51°14.942 2°46.738 6.6 348 4.7 103660 39
2011-01-21 08:14:10 51°14.94 2°46.702 7.7 349 4.7 103660 39
2011-01-21 08:14:15 51°14.94 2°46.672 8.3 349 4.7 103660 39
2011-01-21 08:14:20 51°14.939 2°46.642 6.9 351 4.7 103660 39
2011-01-21 08:14:24 51°14.938 2°46.618 7.4 350 4.7 103660 39
2011-01-21 08:14:30 51°14.936 2°46.582 7.4 350 4.7 103660 39
2011-01-21 08:14:35 51°14.934 2°46.552 7.1 349 4.7 103650 40
2011-01-21 08:14:40 51°14.932 2°46.522 6.6 351 4.7 103650 40
2011-01-21 08:14:45 51°14.929 2°46.492 5.8 349 4.7 103650 40
2011-01-21 08:14:50 51°14.926 2°46.462 6.5 347 4.7 103650 40
2011-01-21 08:14:55 51°14.921 2°46.432 6.3 350 4.7 103650 39
2011-01-21 08:15:00 51°14.916 2°46.403 5.7 349 4.7 103650 39
2011-01-21 08:15:05 51°14.91 2°46.373 5.3 350 4.7 103650 39
2011-01-21 08:15:10 51°14.905 2°46.344 6.6 351 4.7 103650 39
2011-01-21 08:15:15 51°14.899 2°46.314 6.6 353 4.7 103660 40
2011-01-21 08:15:20 51°14.893 2°46.285 5.9 352 4.7 103660 40
2011-01-21 08:15:24 51°14.889 2°46.262 6 352 4.7 103660 40
2011-01-21 08:15:30 51°14.882 2°46.226 5.7 351 4.7 103660 40
2011-01-21 08:15:35 51°14.878 2°46.196 6.3 351 4.7 103660 40
2011-01-21 08:15:40 51°14.874 2°46.166 6.6 349 4.7 103660 40
2011-01-21 08:15:44 51°14.871 2°46.142 8.2 349 4.7 103650 40
2011-01-21 08:15:50 51°14.868 2°46.105 6.4 347 4.7 103650 40
2011-01-21 08:15:55 51°14.865 2°46.074 8.3 349 4.7 103660 38
2011-01-21 08:16:00 51°14.863 2°46.044 7.4 348 4.7 103660 38
2011-01-21 08:16:04 51°14.86 2°46.019 6.7 349 4.7 103660 39
2011-01-21 08:16:10 51°14.858 2°45.981 6.6 348 4.7 103660 39
2011-01-21 08:16:15 51°14.856 2°45.95 7.2 347 4.7 103650 38
2011-01-21 08:16:20 51°14.852 2°45.919 6.2 350 4.7 103650 38
2011-01-21 08:16:24 51°14.85 2°45.894 6.4 351 4.7 103650 38
2011-01-21 08:16:30 51°14.844 2°45.858 6.3 349 4.7 103650 38
2011-01-21 08:16:35 51°14.839 2°45.827 6.3 347 4.7 103660 38
2011-01-21 08:16:40 51°14.833 2°45.797 6 350 4.7 103660 38
2011-01-21 08:16:45 51°14.826 2°45.767 5.2 348 4.7 103650 40
2011-01-21 08:16:50 51°14.819 2°45.738 6.7 351 4.7 103650 40
2011-01-21 08:16:55 51°14.812 2°45.708 6.5 352 4.7 103650 38
2011-01-21 08:17:00 51°14.804 2°45.679 7.2 351 4.7 103650 38
2011-01-21 08:17:04 51°14.798 2°45.655 7.8 354 4.6 103660 38
2011-01-21 08:17:10 51°14.789 2°45.62 7.3 356 4.6 103660 38
2011-01-21 08:17:15 51°14.781 2°45.591 7.2 354 4.7 103660 39
2011-01-21 08:17:20 51°14.773 2°45.562 6 356 4.7 103660 39
2011-01-21 08:17:25 51°14.766 2°45.532 6 356 4.7 103660 40
2011-01-21 08:17:30 51°14.758 2°45.503 7 356 4.7 103660 40
2011-01-21 08:17:35 51°14.75 2°45.474 6 356 4.7 103660 38
2011-01-21 08:17:40 51°14.742 2°45.445 5.7 354 4.7 103660 38
2011-01-21 08:17:45 51°14.734 2°45.416 6.4 356 4.6 103660 39
2011-01-21 08:17:50 51°14.727 2°45.387 6 354 4.6 103660 39
2011-01-21 08:17:55 51°14.719 2°45.358 7.3 356 4.6 103650 39
2011-01-21 08:18:00 51°14.712 2°45.328 6.3 355 4.6 103650 39
2011-01-21 08:18:04 51°14.705 2°45.305 6.8 359 4.7 103650 38
2011-01-21 08:18:10 51°14.696 2°45.27 6 358 4.7 103650 38
2011-01-21 08:18:15 51°14.688 2°45.24 6 358 4.6 103660 39
2011-01-21 08:18:20 51°14.681 2°45.211 6.5 358 4.6 103660 39
2011-01-21 08:18:24 51°14.674 2°45.188 5.7 354 4.7 103660 39
2011-01-21 08:18:30 51°14.665 2°45.153 7.4 355 4.7 103660 39
2011-01-21 08:18:35 51°14.657 2°45.123 7 353 4.6 103660 39
2011-01-21 08:18:40 51°14.649 2°45.095 5.9 356 4.6 103660 39
2011-01-21 08:18:44 51°14.642 2°45.071 7.4 356 4.6 103660 39
2011-01-21 08:18:50 51°14.632 2°45.036 5.8 355 4.6 103660 39
2011-01-21 08:18:55 51°14.624 2°45.008 5.3 353 4.7 103660 38
2011-01-21 08:19:00 51°14.615 2°44.979 5.2 351 4.7 103660 38
2011-01-21 08:19:04 51°14.608 2°44.956 5.4 353 4.6 103660 37
2011-01-21 08:19:10 51°14.597 2°44.922 5 354 4.6 103660 37
2011-01-21 08:19:15 51°14.588 2°44.894 6 351 4.6 103660 37
2011-01-21 08:19:20 51°14.579 2°44.865 5.7 354 4.6 103660 37
2011-01-21 08:19:24 51°14.572 2°44.842 6.1 356 4.6 103660 37
2011-01-21 08:19:30 51°14.561 2°44.808 5.6 355 4.6 103660 37
2011-01-21 08:19:35 51°14.553 2°44.779 5.7 353 4.6 103650 37
2011-01-21 08:19:40 51°14.544 2°44.751 5.5 352 4.6 103650 37
2011-01-21 08:19:44 51°14.537 2°44.727 5.7 354 4.6 103660 38
2011-01-21 08:19:50 51°14.527 2°44.693 4.8 352 4.6 103660 38
2011-01-21 08:19:55 51°14.518 2°44.664 4.5 354 4.6 103660 38
2011-01-21 08:20:00 51°14.51 2°44.635 5.5 351 4.6 103660 38
2011-01-21 08:20:05 51°14.499 2°44.608 5 356 4.6 103650 37
2011-01-21 08:20:10 51°14.49 2°44.58 4.1 355 4.6 103650 37
2011-01-21 08:20:15 51°14.478 2°44.554 4.4 354 4.6 103660 38
2011-01-21 08:20:20 51°14.467 2°44.527 5.7 354 4.6 103660 38
2011-01-21 08:20:24 51°14.458 2°44.506 5.7 354 4.6 103660 36
2011-01-21 08:20:30 51°14.444 2°44.475 5.5 357 4.6 103660 36
2011-01-21 08:20:35 51°14.432 2°44.449 5.3 355 4.6 103660 39
2011-01-21 08:20:40 51°14.42 2°44.423 4.8 356 4.6 103660 39
2011-01-21 08:20:44 51°14.41 2°44.402 4.9 354 4.7 103660 38
2011-01-21 08:20:50 51°14.396 2°44.371 4 354 4.7 103660 38
2011-01-21 08:20:55 51°14.383 2°44.346 4.1 356 4.7 103660 38
2011-01-21 08:21:00 51°14.37 2°44.321 4.6 354 4.7 103660 38
2011-01-21 08:21:04 51°14.36 2°44.302 4.6 357 4.7 103660 38
2011-01-21 08:21:10 51°14.345 2°44.271 3.8 355 4.7 103660 38
2011-01-21 08:21:14 51°14.334 2°44.252 3.6 355 4.7 103660 39
2011-01-21 08:21:20 51°14.319 2°44.222 3.7 355 4.7 103660 39
2011-01-21 08:21:25 51°14.306 2°44.198 4.1 356 4.7 103660 37
2011-01-21 08:21:30 51°14.294 2°44.173 4.3 357 4.7 103660 37
2011-01-21 08:21:35 51°14.28 2°44.149 3.4 353 4.7 103670 37
2011-01-21 08:21:40 51°14.268 2°44.123 4.5 356 4.7 103670 37
2011-01-21 08:21:44 51°14.258 2°44.104 3.5 355 4.7 103660 37
2011-01-21 08:21:50 51°14.243 2°44.074 3.6 352 4.7 103660 37
2011-01-21 08:21:55 51°14.229 2°44.05 4 352 4.7 103660 39
2011-01-21 08:22:00 51°14.217 2°44.025 2.9 353 4.7 103660 39
2011-01-21 08:22:05 51°14.204 2°44 3.2 353 4.7 103660 39
2011-01-21 08:22:10 51°14.191 2°43.975 2.2 353 4.7 103660 39
2011-01-21 08:22:15 51°14.178 2°43.95 2.8 351 4.7 103660 39
2011-01-21 08:22:20 51°14.165 2°43.926 2.8 350 4.7 103660 39
2011-01-21 08:22:25 51°14.152 2°43.902 3.3 353 4.7 103660 38
2011-01-21 08:22:30 51°14.139 2°43.877 2.2 353 4.7 103660 38
2011-01-21 08:22:35 51°14.126 2°43.853 1.3 353 4.7 103670 39
2011-01-21 08:22:40 51°14.113 2°43.829 0.2 352 4.7 103670 39
2011-01-21 08:22:44 51°14.103 2°43.809 0.8 352 4.7 103670 37
2011-01-21 08:22:49 51°14.09 2°43.784 0.9 349 4.7 103670 37
2011-01-21 08:22:55 51°14.075 2°43.754 2.7 353 4.7 103670 37
2011-01-21 08:23:00 51°14.062 2°43.73 1.3 349 4.7 103670 37
2011-01-21 08:23:04 51°14.052 2°43.711 0.4 353 4.7 103670 39
2011-01-21 08:23:10 51°14.036 2°43.68 0.1 354 4.7 103670 39
2011-01-21 08:23:15 51°14.023 2°43.655 0.1 352 4.7 103670 38
2011-01-21 08:23:20 51°14.01 2°43.631 -999 351 4.7 103670 38
2011-01-21 08:23:25 51°13.997 2°43.606 -999 354 4.7 103670 38
2011-01-21 08:23:30 51°13.985 2°43.582 -999 351 4.7 103670 38
2011-01-21 08:23:35 51°13.972 2°43.557 -999 353 4.7 103670 38
2011-01-21 08:23:40 51°13.958 2°43.533 -999 353 4.7 103670 38
2011-01-21 08:23:44 51°13.948 2°43.513 -999 355 4.7 103670 38
2011-01-21 08:23:50 51°13.933 2°43.483 -999 348 4.7 103670 38
2011-01-21 08:23:55 51°13.92 2°43.459 -999 348 4.7 103670 38
2011-01-21 08:24:00 51°13.907 2°43.435 -999 351 4.7 103670 38
2011-01-21 08:24:05 51°13.893 2°43.411 -999 353 4.7 103670 38
2011-01-21 08:24:10 51°13.88 2°43.386 -999 355 4.7 103670 38
2011-01-21 08:24:15 51°13.867 2°43.362 -999 352 4.7 103670 39
2011-01-21 08:24:20 51°13.855 2°43.337 -999 346 4.7 103670 39
2011-01-21 08:24:25 51°13.842 2°43.313 -999 350 4.7 103670 38
2011-01-21 08:24:30 51°13.828 2°43.288 -999 352 4.7 103670 38
2011-01-21 08:24:35 51°13.816 2°43.264 -999 352 4.7 103670 39
2011-01-21 08:24:40 51°13.802 2°43.239 -999 348 4.7 103670 39
2011-01-21 08:24:44 51°13.792 2°43.22 -999 351 4.7 103670 39
2011-01-21 08:24:50 51°13.776 2°43.191 -999 352 4.7 103670 39
2011-01-21 08:24:55 51°13.763 2°43.166 -999 346 4.7 103670 39
2011-01-21 08:25:00 51°13.75 2°43.141 -999 352 4.7 103670 39
2011-01-21 08:25:04 51°13.74 2°43.121 -999 352 4.7 103670 38
2011-01-21 08:25:10 51°13.725 2°43.091 7.8 352 4.7 103670 38
2011-01-21 08:25:15 51°13.712 2°43.067 5 353 4.7 103670 39
2011-01-21 08:25:20 51°13.699 2°43.042 5.3 354 4.7 103670 39
2011-01-21 08:25:25 51°13.686 2°43.017 4.8 353 4.7 103670 39
2011-01-21 08:25:30 51°13.673 2°42.992 5 355 4.7 103670 39
2011-01-21 08:25:35 51°13.661 2°42.968 4.4 352 4.7 103660 37
2011-01-21 08:25:40 51°13.648 2°42.944 4.1 355 4.7 103660 37
2011-01-21 08:25:44 51°13.638 2°42.924 4.3 352 4.7 103660 38
2011-01-21 08:25:50 51°13.622 2°42.894 4.6 350 4.7 103660 38
2011-01-21 08:25:55 51°13.61 2°42.868 3.9 353 4.6 103660 37
2011-01-21 08:26:00 51°13.597 2°42.844 4.8 349 4.6 103660 37
2011-01-21 08:26:05 51°13.585 2°42.818 4.2 348 4.7 103670 37
2011-01-21 08:26:10 51°13.573 2°42.792 4.1 349 4.7 103670 37
2011-01-21 08:26:15 51°13.561 2°42.766 4.4 348 4.7 103660 37
2011-01-21 08:26:20 51°13.549 2°42.739 4.1 346 4.7 103660 37
2011-01-21 08:26:25 51°13.538 2°42.713 4.6 348 4.6 103670 39
2011-01-21 08:26:30 51°13.526 2°42.687 4.8 348 4.6 103670 39
2011-01-21 08:26:35 51°13.515 2°42.66 3.7 351 4.6 103670 36
2011-01-21 08:26:40 51°13.503 2°42.633 3.7 281 4.6 103670 36
2011-01-21 08:26:44 51°13.494 2°42.612 3.7 351 4.6 103670 38
2011-01-21 08:26:50 51°13.481 2°42.581 2.6 349 4.6 103670 38
2011-01-21 08:26:55 51°13.469 2°42.554 2.9 349 4.6 103670 38
2011-01-21 08:27:00 51°13.458 2°42.527 1.6 346 4.6 103670 38
2011-01-21 08:27:04 51°13.448 2°42.507 3.7 349 4.6 103670 37
2011-01-21 08:27:10 51°13.434 2°42.475 3.7 346 4.6 103670 37
2011-01-21 08:27:15 51°13.422 2°42.449 3.9 347 4.6 103670 38
2011-01-21 08:27:20 51°13.41 2°42.423 3.5 346 4.6 103670 38
2011-01-21 08:27:24 51°13.401 2°42.402 4.1 348 4.6 103670 38
2011-01-21 08:27:30 51°13.387 2°42.369 3.7 348 4.6 103670 38
2011-01-21 08:27:35 51°13.375 2°42.343 3.3 348 4.6 103670 37
2011-01-21 08:27:40 51°13.364 2°42.316 3.2 347 4.6 103670 37
2011-01-21 08:27:44 51°13.354 2°42.295 3.3 347 4.6 103670 38
2011-01-21 08:27:50 51°13.341 2°42.263 3.4 347 4.6 103670 38
2011-01-21 08:27:55 51°13.329 2°42.236 1.6 349 4.6 103670 36
2011-01-21 08:28:00 51°13.317 2°42.21 1.7 342 4.6 103670 36
2011-01-21 08:28:04 51°13.308 2°42.189 2.3 348 4.6 103670 37
2011-01-21 08:28:10 51°13.294 2°42.156 4 345 4.6 103670 37
2011-01-21 08:28:15 51°13.282 2°42.13 3.8 349 4.6 103670 37
2011-01-21 08:28:20 51°13.271 2°42.103 3.1 348 4.6 103670 37
2011-01-21 08:28:24 51°13.261 2°42.082 0.6 353 4.6 103670 36
2011-01-21 08:28:30 51°13.247 2°42.05 0.1 350 4.6 103670 36
2011-01-21 08:28:35 51°13.235 2°42.023 0.1 348 4.6 103670 37
2011-01-21 08:28:40 51°13.223 2°41.997 0.5 344 4.6 103670 37
2011-01-21 08:28:45 51°13.212 2°41.97 0.1 346 4.6 103670 37
2011-01-21 08:28:50 51°13.2 2°41.943 0.1 347 4.6 103670 37
2011-01-21 08:28:55 51°13.188 2°41.916 0.1 348 4.6 103670 37
2011-01-21 08:29:00 51°13.176 2°41.89 -999 347 4.6 103670 37
2011-01-21 08:29:04 51°13.167 2°41.869 -999 345 4.7 103670 37
2011-01-21 08:29:10 51°13.153 2°41.837 -999 348 4.7 103670 37
2011-01-21 08:29:15 51°13.141 2°41.811 -999 347 4.7 103670 38
2011-01-21 08:29:20 51°13.128 2°41.785 4.8 350 4.7 103670 38
2011-01-21 08:29:24 51°13.119 2°41.763 4.3 347 4.7 103670 38
2011-01-21 08:29:30 51°13.104 2°41.731 4.1 348 4.7 103670 38
2011-01-21 08:29:35 51°13.093 2°41.704 3.7 348 4.7 103670 37
2011-01-21 08:29:40 51°13.081 2°41.678 4.7 352 4.7 103670 37
2011-01-21 08:29:44 51°13.072 2°41.656 3.5 347 4.7 103670 38
2011-01-21 08:29:50 51°13.058 2°41.623 4 349 4.7 103670 38
2011-01-21 08:29:55 51°13.046 2°41.597 3.9 350 4.7 103670 39
2011-01-21 08:30:00 51°13.034 2°41.571 3.5 350 4.7 103670 39
2011-01-21 08:30:05 51°13.022 2°41.544 4.5 350 4.7 103670 37
2011-01-21 08:30:10 51°13.01 2°41.518 4.3 349 4.7 103670 37
2011-01-21 08:30:15 51°12.998 2°41.491 4.5 348 4.7 103670 38
2011-01-21 08:30:20 51°12.986 2°41.465 3.8 352 4.7 103670 38
2011-01-21 08:30:24 51°12.976 2°41.444 4 350 4.7 103670 37
2011-01-21 08:30:30 51°12.962 2°41.412 4.1 351 4.7 103670 37
2011-01-21 08:30:35 51°12.95 2°41.385 3.6 352 4.7 103670 37
2011-01-21 08:30:40 51°12.938 2°41.358 4.1 351 4.7 103670 37
2011-01-21 08:30:45 51°12.926 2°41.331 3.3 351 4.7 103670 38
2011-01-21 08:30:50 51°12.915 2°41.304 4.8 350 4.7 103670 38
2011-01-21 08:30:55 51°12.904 2°41.277 5.1 354 4.7 103670 38
2011-01-21 08:31:00 51°12.892 2°41.25 4 352 4.7 103670 38
2011-01-21 08:31:04 51°12.882 2°41.228 4.6 355 4.7 103670 37
2011-01-21 08:31:10 51°12.869 2°41.196 4 355 4.7 103670 37
2011-01-21 08:31:15 51°12.856 2°41.17 4.6 357 4.7 103670 37
2011-01-21 08:31:20 51°12.845 2°41.143 3.9 352 4.7 103670 37
2011-01-21 08:31:24 51°12.835 2°41.123 4 353 4.7 103670 39
2011-01-21 08:31:30 51°12.82 2°41.091 4.2 354 4.7 103670 39
2011-01-21 08:31:35 51°12.808 2°41.065 3.4 352 4.7 103670 39
2011-01-21 08:31:40 51°12.797 2°41.038 4 351 4.7 103670 39
2011-01-21 08:31:44 51°12.787 2°41.017 4.4 350 4.7 103670 39
2011-01-21 08:31:50 51°12.773 2°40.985 4.8 352 4.7 103670 39
2011-01-21 08:31:55 51°12.761 2°40.958 5 351 4.8 103670 38
2011-01-21 08:32:00 51°12.75 2°40.932 4.3 352 4.8 103670 38
2011-01-21 08:32:05 51°12.738 2°40.905 4.3 353 4.8 103670 40
2011-01-21 08:32:09 51°12.729 2°40.884 3.7 350 4.8 103670 40
2011-01-21 08:32:15 51°12.714 2°40.852 4.1 348 4.8 103670 39
2011-01-21 08:32:20 51°12.702 2°40.825 4.6 345 4.8 103670 39
2011-01-21 08:32:24 51°12.693 2°40.804 5.9 349 4.7 103680 37
2011-01-21 08:32:30 51°12.678 2°40.773 4.5 347 4.7 103680 37
2011-01-21 08:32:35 51°12.666 2°40.746 4.5 345 4.7 103680 37
2011-01-21 08:32:40 51°12.655 2°40.72 4.4 280 4.7 103680 37
2011-01-21 08:32:45 51°12.643 2°40.694 4.1 343 4.7 103670 37
2011-01-21 08:32:50 51°12.631 2°40.667 5.3 347 4.7 103670 37
2011-01-21 08:32:55 51°12.619 2°40.641 4.5 345 4.7 103670 39
2011-01-21 08:33:00 51°12.607 2°40.615 5.1 348 4.7 103670 39
2011-01-21 08:33:04 51°12.598 2°40.594 4.7 346 4.7 103680 37
2011-01-21 08:33:10 51°12.584 2°40.563 4.1 345 4.7 103680 37
2011-01-21 08:33:15 51°12.572 2°40.536 4.1 348 4.7 103670 37
2011-01-21 08:33:20 51°12.56 2°40.51 5.2 350 4.7 103670 37
2011-01-21 08:33:25 51°12.548 2°40.484 5.1 354 4.7 103670 39
2011-01-21 08:33:30 51°12.536 2°40.458 4.7 351 4.7 103670 39
2011-01-21 08:33:35 51°12.524 2°40.432 3.7 351 4.7 103670 39
2011-01-21 08:33:40 51°12.512 2°40.406 4.5 354 4.7 103670 39
2011-01-21 08:33:44 51°12.503 2°40.384 4.8 356 4.7 103680 39
2011-01-21 08:33:50 51°12.488 2°40.354 4.1 353 4.7 103680 39
2011-01-21 08:33:55 51°12.476 2°40.328 3.9 351 4.7 103670 37
2011-01-21 08:34:00 51°12.464 2°40.302 3.4 353 4.7 103670 37
2011-01-21 08:34:05 51°12.453 2°40.276 4.1 354 4.7 103670 39
2011-01-21 08:34:09 51°12.443 2°40.255 3.1 351 4.7 103670 39
2011-01-21 08:34:15 51°12.429 2°40.224 2.3 348 4.7 103670 37
2011-01-21 08:34:20 51°12.417 2°40.197 4.5 351 4.7 103670 37
2011-01-21 08:34:24 51°12.408 2°40.176 3.9 352 4.7 103680 37
2011-01-21 08:34:30 51°12.395 2°40.144 5.6 350 4.7 103680 37
2011-01-21 08:34:35 51°12.383 2°40.118 4.9 350 4.8 103670 39
2011-01-21 08:34:40 51°12.372 2°40.092 4.4 350 4.8 103670 39
2011-01-21 08:34:44 51°12.363 2°40.07 3.5 348 4.8 103680 38
2011-01-21 08:34:50 51°12.348 2°40.039 4 351 4.8 103680 38
2011-01-21 08:34:55 51°12.337 2°40.014 3.6 352 4.8 103680 38
2011-01-21 08:35:00 51°12.325 2°39.987 4.7 350 4.8 103680 38
2011-01-21 08:35:04 51°12.316 2°39.967 4.1 351 4.8 103670 37
2011-01-21 08:35:10 51°12.301 2°39.936 4.2 354 4.8 103670 37
2011-01-21 08:35:15 51°12.29 2°39.91 4.9 357 4.8 103670 38
2011-01-21 08:35:20 51°12.278 2°39.884 5.6 -999 4.8 103670 38
2011-01-21 08:35:25 51°12.266 2°39.857 6 358 4.8 103670 40
2011-01-21 08:35:30 51°12.255 2°39.831 5.6 350 4.8 103670 40
2011-01-21 08:35:35 51°12.243 2°39.805 7 351 4.8 103670 38
2011-01-21 08:35:40 51°12.231 2°39.779 6.3 351 4.8 103670 38
2011-01-21 08:35:45 51°12.219 2°39.753 5.8 345 4.8 103670 38
2011-01-21 08:35:50 51°12.208 2°39.727 6.4 354 4.8 103670 38
2011-01-21 08:35:55 51°12.196 2°39.701 5.1 354 4.9 103670 40
2011-01-21 08:36:00 51°12.184 2°39.675 6 355 4.9 103670 40
2011-01-21 08:36:04 51°12.175 2°39.654 5 356 4.9 103670 40
2011-01-21 08:36:10 51°12.161 2°39.623 5.2 355 4.9 103670 40
2011-01-21 08:36:15 51°12.149 2°39.597 4.6 356 4.9 103670 38
2011-01-21 08:36:20 51°12.138 2°39.571 4.7 354 4.9 103670 38
2011-01-21 08:36:24 51°12.129 2°39.551 5.2 356 4.8 103670 40
2011-01-21 08:36:30 51°12.114 2°39.519 5.4 355 4.8 103670 40
2011-01-21 08:36:35 51°12.103 2°39.493 4.6 353 4.8 103670 39
2011-01-21 08:36:40 51°12.092 2°39.467 4.5 359 4.8 103670 39
2011-01-21 08:36:45 51°12.08 2°39.441 4.2 356 4.8 103670 37
2011-01-21 08:36:50 51°12.069 2°39.414 4.1 356 4.8 103670 37
2011-01-21 08:36:55 51°12.057 2°39.388 3.4 356 4.7 103670 37
2011-01-21 08:37:00 51°12.046 2°39.361 4.3 351 4.7 103670 37
2011-01-21 08:37:04 51°12.036 2°39.341 4.3 355 4.7 103670 37
2011-01-21 08:37:10 51°12.023 2°39.309 4.6 352 4.7 103670 37
2011-01-21 08:37:15 51°12.011 2°39.283 5.3 355 4.7 103670 36
2011-01-21 08:37:20 51°12 2°39.257 4.4 354 4.7 103670 36
2011-01-21 08:37:25 51°11.988 2°39.231 5.6 356 4.7 103670 39
2011-01-21 08:37:30 51°11.976 2°39.205 5.3 356 4.7 103670 39
2011-01-21 08:37:35 51°11.965 2°39.178 5 356 4.8 103670 38
2011-01-21 08:37:40 51°11.953 2°39.152 4.6 356 4.8 103670 38
2011-01-21 08:37:45 51°11.941 2°39.126 4.3 357 4.8 103670 37
2011-01-21 08:37:50 51°11.93 2°39.1 3.8 356 4.8 103670 37
2011-01-21 08:37:55 51°11.918 2°39.074 4.1 357 4.7 103670 36
2011-01-21 08:38:00 51°11.907 2°39.047 3.6 355 4.7 103670 36
2011-01-21 08:38:05 51°11.895 2°39.021 3.8 357 4.7 103670 36
2011-01-21 08:38:10 51°11.883 2°38.995 2.8 353 4.7 103670 36
2011-01-21 08:38:15 51°11.872 2°38.969 3.6 356 4.7 103670 36
2011-01-21 08:38:20 51°11.86 2°38.943 3 353 4.7 103670 36
2011-01-21 08:38:24 51°11.85 2°38.922 2.6 357 4.7 103670 36
2011-01-21 08:38:30 51°11.836 2°38.892 2.6 355 4.7 103670 36
2011-01-21 08:38:35 51°11.824 2°38.866 2.5 354 4.8 103680 37
2011-01-21 08:38:40 51°11.811 2°38.842 1.3 354 4.8 103680 37
2011-01-21 08:38:45 51°11.799 2°38.817 0.4 354 4.8 103670 39
2011-01-21 08:38:50 51°11.787 2°38.792 2.2 350 4.8 103670 39
2011-01-21 08:38:55 51°11.775 2°38.766 0.2 354 4.8 103670 37
2011-01-21 08:39:00 51°11.763 2°38.74 0.1 355 4.8 103670 37
2011-01-21 08:39:04 51°11.754 2°38.72 -999 352 4.8 103670 37
2011-01-21 08:39:10 51°11.74 2°38.689 -999 348 4.8 103670 37
2011-01-21 08:39:15 51°11.729 2°38.663 0.1 349 4.8 103680 37
2011-01-21 08:39:20 51°11.718 2°38.636 0.2 348 4.8 103680 37
2011-01-21 08:39:25 51°11.707 2°38.61 0.1 348 4.8 103670 37
2011-01-21 08:39:30 51°11.696 2°38.583 -999 349 4.8 103670 37
2011-01-21 08:39:35 51°11.684 2°38.557 -999 347 4.8 103680 38
2011-01-21 08:39:40 51°11.673 2°38.532 -999 344 4.8 103680 38
2011-01-21 08:39:44 51°11.663 2°38.511 -999 347 4.8 103670 38
2011-01-21 08:39:50 51°11.649 2°38.48 -999 344 4.8 103670 38
2011-01-21 08:39:55 51°11.637 2°38.455 -999 346 4.8 103680 38
2011-01-21 08:40:00 51°11.626 2°38.429 -999 344 4.8 103680 38
2011-01-21 08:40:04 51°11.616 2°38.409 -999 347 4.8 103670 38
2011-01-21 08:40:10 51°11.602 2°38.378 -999 347 4.8 103670 38
2011-01-21 08:40:15 51°11.59 2°38.352 -999 347 4.8 103670 38
2011-01-21 08:40:20 51°11.579 2°38.326 -999 348 4.8 103670 38
2011-01-21 08:40:24 51°11.57 2°38.305 -999 346 4.8 103680 37
2011-01-21 08:40:30 51°11.556 2°38.274 -999 347 4.8 103680 37
2011-01-21 08:40:35 51°11.545 2°38.248 -999 348 4.8 103670 38
2011-01-21 08:40:40 51°11.534 2°38.222 -999 348 4.8 103670 38
2011-01-21 08:40:44 51°11.524 2°38.201 -999 346 4.8 103670 38
2011-01-21 08:40:50 51°11.511 2°38.169 -999 349 4.8 103670 38
2011-01-21 08:40:55 51°11.499 2°38.144 -999 350 4.8 103670 38
2011-01-21 08:41:00 51°11.487 2°38.118 -999 350 4.8 103670 38
2011-01-21 08:41:04 51°11.478 2°38.098 -999 348 4.8 103680 39
2011-01-21 08:41:10 51°11.464 2°38.067 -999 348 4.8 103680 39
2011-01-21 08:41:15 51°11.451 2°38.041 -999 348 4.8 103680 39
2011-01-21 08:41:20 51°11.44 2°38.015 -999 347 4.8 103680 39
2011-01-21 08:41:24 51°11.43 2°37.994 -999 351 4.8 103670 39
2011-01-21 08:41:30 51°11.416 2°37.963 -999 349 4.8 103670 39
2011-01-21 08:41:35 51°11.405 2°37.936 -999 348 4.8 103670 39
2011-01-21 08:41:40 51°11.393 2°37.91 -999 350 4.8 103670 39
2011-01-21 08:41:44 51°11.383 2°37.888 -999 347 4.9 103670 38
2011-01-21 08:41:50 51°11.369 2°37.857 -999 349 4.9 103670 38
2011-01-21 08:41:55 51°11.357 2°37.831 -999 348 4.8 103670 39
2011-01-21 08:42:00 51°11.346 2°37.805 -999 349 4.8 103670 39
2011-01-21 08:42:05 51°11.334 2°37.779 -999 345 4.9 103670 39
2011-01-21 08:42:10 51°11.323 2°37.752 -999 347 4.9 103670 39
2011-01-21 08:42:15 51°11.311 2°37.726 -999 346 4.8 103670 39
2011-01-21 08:42:20 51°11.299 2°37.699 -999 350 4.8 103670 39
2011-01-21 08:42:24 51°11.291 2°37.678 -999 346 4.9 103680 39
2011-01-21 08:42:30 51°11.277 2°37.647 -999 347 4.9 103680 39
2011-01-21 08:42:35 51°11.265 2°37.621 -999 348 4.8 103670 39
2011-01-21 08:42:40 51°11.252 2°37.595 -999 347 4.8 103670 39
2011-01-21 08:42:44 51°11.243 2°37.574 -999 348 4.8 103670 38
2011-01-21 08:42:50 51°11.229 2°37.543 -999 349 4.8 103670 38
2011-01-21 08:42:55 51°11.217 2°37.517 -999 350 4.8 103680 38
2011-01-21 08:43:00 51°11.206 2°37.491 -999 350 4.8 103680 38
2011-01-21 08:43:04 51°11.196 2°37.47 -999 347 4.8 103670 38
2011-01-21 08:43:10 51°11.183 2°37.439 -999 350 4.8 103670 38
2011-01-21 08:43:15 51°11.171 2°37.413 -999 347 4.8 103670 38
2011-01-21 08:43:20 51°11.159 2°37.387 -999 350 4.8 103670 38
2011-01-21 08:43:25 51°11.148 2°37.361 -999 348 4.8 103670 38
2011-01-21 08:43:30 51°11.136 2°37.335 -999 351 4.8 103670 38
2011-01-21 08:43:35 51°11.125 2°37.309 -999 347 4.8 103680 38
2011-01-21 08:43:40 51°11.113 2°37.283 -999 351 4.8 103680 38
2011-01-21 08:43:44 51°11.104 2°37.262 -999 346 4.8 103670 38
2011-01-21 08:43:50 51°11.089 2°37.232 -999 349 4.8 103670 38
2011-01-21 08:43:55 51°11.078 2°37.205 -999 347 4.8 103680 38
2011-01-21 08:44:00 51°11.066 2°37.179 -999 351 4.8 103680 38
2011-01-21 08:44:05 51°11.055 2°37.153 -999 346 4.7 103670 37
2011-01-21 08:44:10 51°11.044 2°37.127 -999 350 4.7 103670 37
2011-01-21 08:44:15 51°11.032 2°37.101 -999 347 4.7 103670 37
2011-01-21 08:44:20 51°11.021 2°37.075 -999 350 4.7 103670 37
2011-01-21 08:44:24 51°11.012 2°37.054 -999 345 4.7 103670 38
2011-01-21 08:44:30 51°10.998 2°37.023 -999 348 4.7 103670 38
2011-01-21 08:44:35 51°10.986 2°36.998 -999 343 4.8 103670 37
2011-01-21 08:44:40 51°10.974 2°36.972 -999 348 4.8 103670 37
2011-01-21 08:44:44 51°10.964 2°36.951 -999 346 4.8 103680 37
2011-01-21 08:44:50 51°10.95 2°36.92 -999 347 4.8 103680 37
2011-01-21 08:44:55 51°10.938 2°36.895 -999 345 4.8 103670 38
2011-01-21 08:45:00 51°10.925 2°36.871 -999 343 4.8 103670 38
2011-01-21 08:45:04 51°10.914 2°36.852 -999 344 4.8 103670 38
2011-01-21 08:45:10 51°10.897 2°36.825 -999 346 4.8 103670 38
2011-01-21 08:45:15 51°10.882 2°36.803 -999 343 4.8 103670 38
2011-01-21 08:45:20 51°10.867 2°36.783 -999 340 4.8 103670 38
2011-01-21 08:45:24 51°10.854 2°36.767 -999 340 4.8 103670 38
2011-01-21 08:45:30 51°10.835 2°36.743 -999 338 4.8 103670 38
2011-01-21 08:45:35 51°10.819 2°36.725 -999 338 4.8 103680 38
2011-01-21 08:45:40 51°10.802 2°36.706 -999 337 4.8 103680 38
2011-01-21 08:45:44 51°10.789 2°36.692 -999 340 4.8 103680 37
2011-01-21 08:45:50 51°10.769 2°36.67 -999 338 4.8 103680 37
2011-01-21 08:45:54 51°10.756 2°36.656 -999 339 4.8 103670 38
2011-01-21 08:46:00 51°10.736 2°36.635 -999 342 4.8 103670 38
2011-01-21 08:46:05 51°10.719 2°36.617 -999 339 4.8 103680 38
2011-01-21 08:46:10 51°10.702 2°36.599 -999 343 4.8 103680 38
2011-01-21 08:46:15 51°10.686 2°36.582 -999 342 4.8 103670 38
2011-01-21 08:46:20 51°10.668 2°36.566 -999 341 4.8 103670 38
2011-01-21 08:46:24 51°10.654 2°36.553 -999 337 4.8 103680 38
2011-01-21 08:46:30 51°10.632 2°36.539 -999 340 4.8 103680 38
2011-01-21 08:46:35 51°10.614 2°36.526 -999 329 4.8 103680 38
2011-01-21 08:46:40 51°10.596 2°36.516 -999 283 4.8 103680 38
2011-01-21 08:46:45 51°10.577 2°36.506 -999 329 4.8 103680 38
2011-01-21 08:46:50 51°10.558 2°36.496 -999 324 4.8 103680 38
2011-01-21 08:46:55 51°10.539 2°36.489 -999 320 4.8 103680 38
2011-01-21 08:47:00 51°10.521 2°36.482 -999 307 4.8 103680 38
2011-01-21 08:47:04 51°10.505 2°36.479 -999 317 4.8 103680 38
2011-01-21 08:47:10 51°10.483 2°36.477 -999 307 4.8 103680 38
2011-01-21 08:47:15 51°10.464 2°36.479 -999 22 4.8 103680 38
2011-01-21 08:47:20 51°10.445 2°36.482 -999 307 4.8 103680 38
2011-01-21 08:47:24 51°10.431 2°36.485 3.3 25 4.8 103680 38
2011-01-21 08:47:29 51°10.413 2°36.491 3.1 303 4.8 103680 38
2011-01-21 08:47:35 51°10.392 2°36.502 3.7 26 4.9 103680 38
2011-01-21 08:47:40 51°10.374 2°36.512 3.8 303 4.9 103680 38
2011-01-21 08:47:44 51°10.36 2°36.521 4.2 23 4.9 103670 37
2011-01-21 08:47:50 51°10.339 2°36.536 4.8 307 4.9 103670 37
2011-01-21 08:47:55 51°10.321 2°36.549 5.1 26 4.9 103680 39
2011-01-21 08:48:00 51°10.303 2°36.563 4.8 308 4.9 103680 39
2011-01-21 08:48:05 51°10.285 2°36.575 5.9 27 4.9 103670 38
2011-01-21 08:48:10 51°10.268 2°36.587 5.3 306 4.9 103670 38
2011-01-21 08:48:15 51°10.25 2°36.6 5.7 20 4.9 103670 37
2011-01-21 08:48:20 51°10.232 2°36.612 4.2 303 4.9 103670 37
2011-01-21 08:48:24 51°10.218 2°36.622 5.2 25 4.9 103670 38
2011-01-21 08:48:30 51°10.197 2°36.636 5.1 304 4.9 103670 38
2011-01-21 08:48:35 51°10.179 2°36.647 5.3 22 4.9 103670 37
2011-01-21 08:48:40 51°10.162 2°36.659 4.7 280 4.9 103670 37
2011-01-21 08:48:45 51°10.145 2°36.671 4.7 22 4.9 103670 38
2011-01-21 08:48:50 51°10.127 2°36.683 3.9 305 4.9 103670 38
2011-01-21 08:48:55 51°10.11 2°36.694 4.6 18 4.9 103670 37
2011-01-21 08:49:00 51°10.092 2°36.705 3.7 310 4.9 103670 37
2011-01-21 08:49:05 51°10.074 2°36.715 4.4 25 4.9 103670 39
2011-01-21 08:49:10 51°10.056 2°36.725 4.8 306 4.9 103670 39
2011-01-21 08:49:15 51°10.038 2°36.735 4.1 18 4.8 103670 39
2011-01-21 08:49:20 51°10.02 2°36.745 4.2 303 4.8 103670 39
2011-01-21 08:49:24 51°10.006 2°36.751 3.4 23 4.9 103670 37
2011-01-21 08:49:30 51°9.984 2°36.762 4 308 4.9 103670 37
2011-01-21 08:49:35 51°9.965 2°36.769 4.1 316 4.9 103670 37
2011-01-21 08:49:40 51°9.946 2°36.777 3.6 303 4.9 103670 37
2011-01-21 08:49:44 51°9.932 2°36.783 3.9 316 4.9 103670 39
2011-01-21 08:49:50 51°9.911 2°36.794 3.6 309 4.9 103670 39
2011-01-21 08:49:55 51°9.893 2°36.803 4.4 316 4.9 103670 38
2011-01-21 08:50:00 51°9.875 2°36.813 3.7 309 4.9 103670 38
2011-01-21 08:50:04 51°9.861 2°36.821 3.7 315 4.9 103670 38
2011-01-21 08:50:10 51°9.84 2°36.833 3.9 310 4.9 103670 38
2011-01-21 08:50:15 51°9.823 2°36.843 3.9 26 4.9 103670 37
2011-01-21 08:50:20 51°9.805 2°36.853 3.4 310 4.9 103670 37
2011-01-21 08:50:24 51°9.791 2°36.86 3.5 316 4.9 103670 39
2011-01-21 08:50:30 51°9.77 2°36.872 2.7 310 4.9 103670 39
2011-01-21 08:50:34 51°9.756 2°36.88 3.4 26 4.9 103670 38
2011-01-21 08:50:40 51°9.735 2°36.891 3.6 302 4.9 103670 38
2011-01-21 08:50:45 51°9.717 2°36.9 2.5 318 4.9 103670 38
2011-01-21 08:50:50 51°9.699 2°36.909 3.8 305 4.9 103670 38
2011-01-21 08:50:55 51°9.681 2°36.919 4.5 28 4.9 103670 38
2011-01-21 08:51:00 51°9.663 2°36.927 4 309 4.9 103670 38
2011-01-21 08:51:04 51°9.649 2°36.932 2.9 22 4.9 103670 38
2011-01-21 08:51:10 51°9.626 2°36.937 1.8 310 4.9 103670 38
2011-01-21 08:51:15 51°9.607 2°36.939 2.8 321 4.9 103670 37
2011-01-21 08:51:20 51°9.588 2°36.938 3 321 4.9 103670 37
2011-01-21 08:51:24 51°9.573 2°36.935 0.3 328 4.9 103670 37
2011-01-21 08:51:30 51°9.55 2°36.927 0.1 329 4.9 103670 37
2011-01-21 08:51:35 51°9.531 2°36.918 0.1 334 4.9 103670 38
2011-01-21 08:51:40 51°9.514 2°36.904 0.1 283 4.9 103670 38
2011-01-21 08:51:44 51°9.5 2°36.893 -999 337 4.9 103680 38
2011-01-21 08:51:50 51°9.479 2°36.874 0.1 341 4.9 103680 38
2011-01-21 08:51:55 51°9.462 2°36.857 0.1 339 4.9 103680 37
2011-01-21 08:52:00 51°9.446 2°36.838 0.1 341 4.9 103680 37
2011-01-21 08:52:04 51°9.433 2°36.822 1.2 346 4.9 103680 37
2011-01-21 08:52:09 51°9.417 2°36.802 1.6 341 4.9 103680 37
2011-01-21 08:52:15 51°9.4 2°36.773 3.1 345 4.9 103680 38
2011-01-21 08:52:20 51°9.387 2°36.749 3.3 348 4.9 103680 38
2011-01-21 08:52:24 51°9.377 2°36.729 4.3 353 4.9 103680 38
2011-01-21 08:52:30 51°9.362 2°36.699 3.8 348 4.9 103680 38
2011-01-21 08:52:35 51°9.351 2°36.672 4.9 352 4.9 103680 38
2011-01-21 08:52:40 51°9.341 2°36.644 4.4 351 4.9 103680 38
2011-01-21 08:52:45 51°9.331 2°36.615 4.8 353 4.9 103680 37
2011-01-21 08:52:50 51°9.322 2°36.586 4.2 346 4.9 103680 37
2011-01-21 08:52:55 51°9.312 2°36.558 4.3 348 4.9 103670 38
2011-01-21 08:53:00 51°9.304 2°36.528 5.9 348 4.9 103670 38
2011-01-21 08:53:04 51°9.297 2°36.504 5.1 349 4.9 103670 37
2011-01-21 08:53:10 51°9.288 2°36.468 5.9 347 4.9 103670 37
2011-01-21 08:53:15 51°9.28 2°36.438 5.9 347 4.9 103670 37
2011-01-21 08:53:20 51°9.273 2°36.407 6.1 344 4.9 103670 37
2011-01-21 08:53:25 51°9.265 2°36.377 6.1 348 4.9 103670 37
2011-01-21 08:53:30 51°9.257 2°36.347 5 346 4.9 103670 37
2011-01-21 08:53:35 51°9.249 2°36.317 5.4 348 4.9 103670 37
2011-01-21 08:53:40 51°9.24 2°36.287 4.6 348 4.9 103670 37
2011-01-21 08:53:45 51°9.232 2°36.258 4.7 347 4.9 103670 37
2011-01-21 08:53:50 51°9.223 2°36.228 4.7 344 4.9 103670 37
2011-01-21 08:53:55 51°9.213 2°36.199 5.3 349 4.9 103670 38
2011-01-21 08:54:00 51°9.203 2°36.171 5 346 4.9 103670 38
2011-01-21 08:54:04 51°9.195 2°36.148 5.3 348 4.8 103670 38
2011-01-21 08:54:10 51°9.182 2°36.114 4.7 346 4.8 103670 38
2011-01-21 08:54:15 51°9.171 2°36.085 3.3 347 4.8 103670 38
2011-01-21 08:54:20 51°9.161 2°36.057 4.4 344 4.8 103670 38
2011-01-21 08:54:24 51°9.152 2°36.034 4.6 347 4.9 103670 38
2011-01-21 08:54:30 51°9.14 2°36 4.5 348 4.9 103670 38
2011-01-21 08:54:35 51°9.129 2°35.972 4.5 348 4.8 103670 38
2011-01-21 08:54:40 51°9.119 2°35.943 4.3 347 4.8 103670 38
2011-01-21 08:54:45 51°9.109 2°35.914 4.5 344 4.8 103670 38
2011-01-21 08:54:50 51°9.098 2°35.886 4.9 350 4.8 103670 38
2011-01-21 08:54:55 51°9.088 2°35.856 4.1 346 4.8 103670 36
2011-01-21 08:55:00 51°9.077 2°35.828 4.3 348 4.8 103670 36
2011-01-21 08:55:05 51°9.067 2°35.799 4.4 347 4.8 103680 37
2011-01-21 08:55:10 51°9.057 2°35.771 4.4 347 4.8 103680 37
2011-01-21 08:55:15 51°9.046 2°35.741 4.8 347 4.8 103680 36
2011-01-21 08:55:20 51°9.036 2°35.712 4.5 348 4.8 103680 36
2011-01-21 08:55:24 51°9.028 2°35.689 4.7 347 4.8 103670 38
2011-01-21 08:55:30 51°9.016 2°35.655 5.2 349 4.8 103670 38
2011-01-21 08:55:35 51°9.006 2°35.626 5.2 347 4.8 103670 37
2011-01-21 08:55:40 51°8.995 2°35.597 5.9 347 4.8 103670 37
2011-01-21 08:55:44 51°8.987 2°35.574 5.9 350 4.8 103670 38
2011-01-21 08:55:50 51°8.975 2°35.539 6.3 349 4.8 103670 38
2011-01-21 08:55:55 51°8.964 2°35.51 6.3 351 4.9 103670 38
2011-01-21 08:56:00 51°8.954 2°35.481 5.2 350 4.9 103670 38
2011-01-21 08:56:04 51°8.945 2°35.458 5.3 351 4.9 103670 38
2011-01-21 08:56:10 51°8.933 2°35.424 4.9 351 4.9 103670 38
2011-01-21 08:56:15 51°8.922 2°35.395 5.5 351 4.8 103670 38
2011-01-21 08:56:20 51°8.912 2°35.366 5.3 351 4.8 103670 38
2011-01-21 08:56:24 51°8.904 2°35.343 5.9 353 4.8 103670 36
2011-01-21 08:56:29 51°8.894 2°35.313 4.9 348 4.8 103670 36
2011-01-21 08:56:35 51°8.882 2°35.278 4.8 347 4.8 103670 38
2011-01-21 08:56:40 51°8.872 2°35.249 5.1 351 4.8 103670 38
2011-01-21 08:56:44 51°8.863 2°35.226 5.2 351 4.8 103670 36
2011-01-21 08:56:49 51°8.853 2°35.196 4.7 350 4.8 103670 36
2011-01-21 08:56:55 51°8.841 2°35.162 5.2 349 4.8 103670 36
2011-01-21 08:57:00 51°8.831 2°35.132 5.3 350 4.8 103670 36
2011-01-21 08:57:04 51°8.822 2°35.109 5.3 352 4.8 103670 38
2011-01-21 08:57:10 51°8.81 2°35.074 4.3 352 4.8 103670 38
2011-01-21 08:57:14 51°8.802 2°35.051 4.4 351 4.9 103670 38
2011-01-21 08:57:20 51°8.79 2°35.016 4.6 348 4.9 103670 38
2011-01-21 08:57:25 51°8.78 2°34.987 5 351 4.8 103670 38
2011-01-21 08:57:30 51°8.769 2°34.958 5.3 351 4.8 103670 38
2011-01-21 08:57:35 51°8.759 2°34.929 5 351 4.9 103670 38
2011-01-21 08:57:40 51°8.748 2°34.9 5.1 349 4.9 103670 38
2011-01-21 08:57:44 51°8.74 2°34.877 5.6 351 4.9 103670 38
2011-01-21 08:57:50 51°8.727 2°34.841 5 353 4.9 103670 38
2011-01-21 08:57:55 51°8.717 2°34.812 5.7 352 4.9 103670 36
2011-01-21 08:58:00 51°8.707 2°34.782 5.1 349 4.9 103670 36
2011-01-21 08:58:04 51°8.699 2°34.759 5.7 348 4.9 103670 37
2011-01-21 08:58:10 51°8.687 2°34.724 5.7 350 4.9 103670 37
2011-01-21 08:58:15 51°8.677 2°34.694 5.9 348 4.9 103670 38
2011-01-21 08:58:20 51°8.666 2°34.665 5.2 350 4.9 103670 38
2011-01-21 08:58:24 51°8.658 2°34.642 5.8 350 4.9 103670 39
2011-01-21 08:58:30 51°8.646 2°34.607 5.7 350 4.9 103670 39
2011-01-21 08:58:35 51°8.635 2°34.578 6 350 4.9 103670 37
2011-01-21 08:58:40 51°8.625 2°34.549 6.3 351 4.9 103670 37
2011-01-21 08:58:44 51°8.617 2°34.527 6.1 352 4.9 103670 39
2011-01-21 08:58:49 51°8.606 2°34.497 5.7 346 4.9 103670 39
2011-01-21 08:58:55 51°8.594 2°34.462 6.7 350 4.9 103670 38
2011-01-21 08:59:00 51°8.584 2°34.433 6.5 351 4.9 103670 38
2011-01-21 08:59:04 51°8.575 2°34.41 5.8 351 4.9 103670 36
2011-01-21 08:59:10 51°8.564 2°34.375 5.7 350 4.9 103670 36
2011-01-21 08:59:14 51°8.555 2°34.352 6 352 4.9 103670 39
2011-01-21 08:59:20 51°8.542 2°34.317 5.5 350 4.9 103670 39
2011-01-21 08:59:25 51°8.532 2°34.289 5.7 349 4.9 103660 39
2011-01-21 08:59:30 51°8.521 2°34.26 5.5 349 4.9 103660 39
2011-01-21 08:59:35 51°8.511 2°34.23 6.2 349 4.9 103670 37
2011-01-21 08:59:40 51°8.501 2°34.201 5.2 348 4.9 103670 37
2011-01-21 08:59:44 51°8.493 2°34.178 5.7 348 4.9 103670 36
2011-01-21 08:59:50 51°8.481 2°34.143 6 351 4.9 103670 36
2011-01-21 08:59:55 51°8.471 2°34.113 6.6 349 4.9 103670 38
2011-01-21 09:00:00 51°8.461 2°34.084 6.2 351 4.9 103670 38
2011-01-21 09:00:05 51°8.451 2°34.054 6.7 350 4.9 103670 38
2011-01-21 09:00:10 51°8.441 2°34.025 6.3 348 4.9 103670 38
2011-01-21 09:00:15 51°8.431 2°33.996 6.8 350 4.9 103670 36
2011-01-21 09:00:20 51°8.421 2°33.966 5.6 351 4.9 103670 36
2011-01-21 09:00:25 51°8.411 2°33.937 5.7 350 4.9 103670 37
2011-01-21 09:00:30 51°8.401 2°33.908 6 347 4.9 103670 37
2011-01-21 09:00:35 51°8.391 2°33.879 5.4 349 4.9 103670 38
2011-01-21 09:00:40 51°8.381 2°33.849 5.9 351 4.9 103670 38
2011-01-21 09:00:44 51°8.373 2°33.826 6.2 349 4.9 103670 37
2011-01-21 09:00:50 51°8.361 2°33.791 5.8 350 4.9 103670 37
2011-01-21 09:00:55 51°8.35 2°33.762 5.9 348 4.9 103670 37
2011-01-21 09:01:00 51°8.34 2°33.733 5.3 350 4.9 103670 37
2011-01-21 09:01:04 51°8.332 2°33.71 6.4 351 4.9 103670 38
2011-01-21 09:01:10 51°8.32 2°33.675 5.9 352 4.9 103670 38
2011-01-21 09:01:15 51°8.31 2°33.645 5.6 352 4.9 103670 37
2011-01-21 09:01:20 51°8.3 2°33.616 5.2 350 4.9 103670 37
2011-01-21 09:01:24 51°8.292 2°33.593 4.2 352 4.9 103670 38
2011-01-21 09:01:30 51°8.281 2°33.557 5.9 350 4.9 103670 38
2011-01-21 09:01:35 51°8.271 2°33.528 5.3 351 4.9 103670 38
2011-01-21 09:01:40 51°8.261 2°33.499 4.7 351 4.9 103670 38
2011-01-21 09:01:44 51°8.253 2°33.476 4.2 350 4.9 103680 36
2011-01-21 09:01:50 51°8.241 2°33.441 5 352 4.9 103680 36
2011-01-21 09:01:55 51°8.231 2°33.412 4.5 349 4.9 103680 38
2011-01-21 09:02:00 51°8.22 2°33.383 5.4 351 4.9 103680 38
2011-01-21 09:02:04 51°8.212 2°33.36 5.1 350 4.9 103680 38
2011-01-21 09:02:10 51°8.2 2°33.325 4.9 349 4.9 103680 38
2011-01-21 09:02:15 51°8.19 2°33.296 5.2 350 4.9 103670 37
2011-01-21 09:02:20 51°8.179 2°33.267 5.3 351 4.9 103670 37
2011-01-21 09:02:24 51°8.171 2°33.244 4.5 349 4.9 103680 38
2011-01-21 09:02:30 51°8.159 2°33.209 4.4 353 4.9 103680 38